TimeCDT,TemperatureF,Dew PointF,Humidity,Sea Level PressureIn,VisibilityMPH,Wind Direction,Wind SpeedMPH,Gust SpeedMPH,PrecipitationIn,Events,Conditions,WindDirDegrees,DateUTC
12:06 AM,73.9,66.9,79,29.96,10.0,SSE,11.5,19.6,N/A,,Mostly Cloudy,160,2012-10-22 05:06:00
12:53 AM,73.0,66.9,81,29.91,10.0,South,12.7,21.9,N/A,,Mostly Cloudy,180,2012-10-22 05:53:00
1:53 AM,73.0,66.9,81,29.90,10.0,South,9.2,-,N/A,,Overcast,180,2012-10-22 06:53:00
2:51 AM,71.6,66.2,83,29.95,10.0,South,8.1,-,N/A,,Scattered Clouds,180,2012-10-22 07:51:00
2:53 AM,72.0,66.9,84,29.90,10.0,South,9.2,-,N/A,,Scattered Clouds,170,2012-10-22 07:53:00
3:01 AM,72.0,68.0,87,29.95,10.0,South,9.2,-,N/A,,Mostly Cloudy,170,2012-10-22 08:01:00
3:53 AM,71.1,68.0,90,29.89,10.0,South,8.1,-,N/A,,Scattered Clouds,180,2012-10-22 08:53:00
4:53 AM,71.1,68.0,90,29.90,10.0,South,5.8,-,N/A,,Overcast,170,2012-10-22 09:53:00
5:21 AM,71.1,68.0,90,29.95,10.0,SSE,5.8,-,N/A,,Overcast,160,2012-10-22 10:21:00
5:53 AM,71.1,68.0,90,29.90,10.0,SSE,8.1,-,N/A,,Mostly Cloudy,160,2012-10-22 10:53:00
6:53 AM,71.1,69.1,93,29.91,9.0,SSE,6.9,-,N/A,,Mostly Cloudy,160,2012-10-22 11:53:00
7:21 AM,72.0,69.1,91,29.96,9.0,SSE,6.9,-,N/A,,Overcast,160,2012-10-22 12:21:00
7:28 AM,72.0,69.1,91,29.96,9.0,South,5.8,-,N/A,,Overcast,170,2012-10-22 12:28:00
7:35 AM,72.0,69.1,91,29.96,9.0,SSE,6.9,-,N/A,,Mostly Cloudy,160,2012-10-22 12:35:00
7:53 AM,71.1,69.1,93,29.91,8.0,SSE,5.8,-,N/A,,Mostly Cloudy,160,2012-10-22 12:53:00
8:43 AM,73.0,69.1,87,29.97,9.0,SSE,9.2,17.3,N/A,,Scattered Clouds,160,2012-10-22 13:43:00
8:53 AM,73.0,69.1,87,29.92,10.0,SSE,9.2,17.3,N/A,,Scattered Clouds,160,2012-10-22 13:53:00
9:53 AM,75.9,69.1,79,29.96,10.0,South,12.7,21.9,N/A,,Mostly Cloudy,170,2012-10-22 14:53:00
10:02 AM,75.9,68.0,76,30.01,10.0,South,12.7,21.9,N/A,,Mostly Cloudy,170,2012-10-22 15:02:00
10:28 AM,78.1,66.9,68,30.02,10.0,South,13.8,-,N/A,,Scattered Clouds,170,2012-10-22 15:28:00
10:53 AM,79.0,64.9,62,29.98,10.0,South,13.8,24.2,N/A,,Partly Cloudy,170,2012-10-22 15:53:00
11:53 AM,81.0,64.0,56,29.98,10.0,South,15.0,23.0,N/A,,Partly Cloudy,180,2012-10-22 16:53:00
12:53 PM,82.9,63.0,51,29.96,10.0,SSE,9.2,20.7,N/A,,Partly Cloudy,160,2012-10-22 17:53:00
1:53 PM,84.9,63.0,48,29.92,10.0,South,10.4,20.7,N/A,,Partly Cloudy,170,2012-10-22 18:53:00
2:53 PM,84.9,63.0,48,29.90,10.0,SSE,9.2,-,N/A,,Scattered Clouds,160,2012-10-22 19:53:00
3:53 PM,86.0,62.1,44,29.89,10.0,Variable,6.9,18.4,N/A,,Partly Cloudy,0,2012-10-22 20:53:00
4:53 PM,86.0,62.1,44,29.88,10.0,SSE,6.9,19.6,N/A,,Clear,160,2012-10-22 21:53:00
5:53 PM,81.0,69.1,67,29.89,10.0,SSE,10.4,18.4,N/A,,Scattered Clouds,150,2012-10-22 22:53:00
6:53 PM,79.0,68.0,69,29.91,10.0,SE,8.1,18.4,N/A,,Partly Cloudy,130,2012-10-22 23:53:00
7:53 PM,77.0,68.0,74,29.92,10.0,SSE,8.1,-,N/A,,Scattered Clouds,150,2012-10-23 00:53:00
8:53 PM,75.9,68.0,76,29.92,10.0,SE,11.5,16.1,N/A,,Partly Cloudy,140,2012-10-23 01:53:00
9:53 PM,75.0,68.0,79,29.93,10.0,SSE,8.1,17.3,N/A,,Clear,150,2012-10-23 02:53:00
10:53 PM,73.9,66.9,79,29.93,10.0,South,9.2,17.3,N/A,,Overcast,170,2012-10-23 03:53:00
11:53 PM,73.9,66.9,79,29.92,10.0,SSE,8.1,-,N/A,,Overcast,160,2012-10-23 04:53:00